Location: Altleiningen
(49.5078°N, 8.0741°E)
Time: 05:10:54
(UTC+00:00)

Resurs 01 Rocket - Pass Details

Date: 03 March 2021
Orbit: 635 x 643 km, 98.0° (Epoch: 11 April)

Event Time Altitude Azimuth Distance (km) Brightness Sun altitude
Exits shadow 19:12:41 32° 51° (NE) 1,093 2.5 -20.0°
Drops below altitude 10° 19:16:08 10° 3° (N) 2,036 4.3 -20.5°
Sets 19:18:30 0° 354° (N) 2,950 5.3 -20.9°
